| time (UTC) | temp F | wind direction | speed MPH | gust MPH | rain 1hr in | rain 24hr in | rain mn in | humidity % | barometer mb |
| 20260831101859 | 55 | 11 | 0.0 | 0.0 | 0.00 | 0.00 | 0.00 | 93 | 1007.2 |
| 20260831101354 | 55 | 18 | 0.0 | 0.0 | 0.00 | 0.00 | 0.00 | 92 | 1007.2 |
| 20260831100851 | 55 | 18 | 0.0 | 0.0 | 0.00 | 0.00 | 0.00 | 93 | 1007.4 |
| 20260831100346 | 55 | 31 | 0.0 | 0.0 | 0.00 | 0.00 | 0.00 | 93 | 1007.3 |
| 20260831095845 | 55 | 5 | 0.0 | 0.0 | 0.00 | 0.00 | 0.00 | 92 | 1007.1 |
| 20260831095339 | 55 | 52 | 0.0 | 0.0 | 0.00 | 0.00 | 0.00 | 93 | 1007.3 |
| 20260831094835 | 55 | 36 | 0.0 | 0.0 | 0.00 | 0.00 | 0.00 | 92 | 1007.1 |
| 20260831094331 | 55 | 67 | 0.0 | 0.0 | 0.00 | 0.00 | 0.00 | 93 | 1007.5 |
| 20260831093826 | 55 | 32 | 0.0 | 0.0 | 0.00 | 0.00 | 0.00 | 93 | 1007.5 |
| 20260831093321 | 55 | 24 | 0.0 | 0.0 | 0.00 | 0.00 | 0.00 | 92 | 1007.3 |
| 20260831092818 | 55 | 14 | 0.0 | 0.0 | 0.00 | 0.00 | 0.00 | 93 | 1007.4 |
| 20260831092313 | 55 | 344 | 0.0 | 0.0 | 0.00 | 0.00 | 0.00 | 93 | 1007.5 |
| 20260831091808 | 56 | 22 | 0.0 | 0.0 | 0.00 | 0.00 | 0.00 | 93 | 1007.5 |
| 20260831091258 | 56 | 14 | 0.0 | 0.0 | 0.00 | 0.00 | 0.00 | 93 | 1007.5 |
| 20260831090753 | 55 | 3 | 0.0 | 0.0 | 0.00 | 0.00 | 0.00 | 93 | 1007.6 |
| 20260831090249 | 55 | 349 | 0.0 | 0.0 | 0.00 | 0.00 | 0.00 | 93 | 1007.7 |
| 20260831085745 | 56 | 351 | 0.0 | 0.0 | 0.00 | 0.00 | 0.00 | 93 | 1007.7 |
| 20260831085239 | 56 | 10 | 0.0 | 0.0 | 0.00 | 0.00 | 0.00 | 93 | 1007.7 |
| 20260831084734 | 56 | 357 | 0.0 | 0.0 | 0.00 | 0.00 | 0.00 | 93 | 1007.8 |
| 20260831084231 | 56 | 345 | 0.0 | 0.0 | 0.00 | 0.00 | 0.00 | 94 | 1007.8 |
| 20260831083726 | 56 | 344 | 0.0 | 0.0 | 0.00 | 0.00 | 0.00 | 94 | 1007.5 |
| 20260831083222 | 56 | 344 | 0.0 | 0.0 | 0.00 | 0.00 | 0.00 | 94 | 1007.7 |
| 20260831082721 | 56 | 344 | 0.0 | 0.0 | 0.00 | 0.00 | 0.00 | 94 | 1007.7 |
| 20260831082216 | 56 | 344 | 0.0 | 0.0 | 0.00 | 0.00 | 0.00 | 94 | 1007.9 |
| 20260831081711 | 56 | 343 | 0.0 | 0.0 | 0.00 | 0.00 | 0.00 | 94 | 1008.0 |
| 20260831081207 | 56 | 343 | 0.0 | 0.0 | 0.00 | 0.00 | 0.00 | 94 | 1007.7 |
| 20260831080702 | 56 | 343 | 0.0 | 0.0 | 0.00 | 0.00 | 0.00 | 94 | 1007.8 |
| 20260831080156 | 56 | 343 | 0.0 | 0.0 | 0.00 | 0.00 | 0.00 | 93 | 1007.8 |
| 20260831075652 | 56 | 13 | 0.0 | 0.0 | 0.00 | 0.00 | 0.00 | 93 | 1008.0 |
| 20260831075148 | 56 | 15 | 0.0 | 0.0 | 0.00 | 0.00 | 0.00 | 93 | 1008.1 |
| 20260831074646 | 56 | 21 | 0.0 | 0.0 | 0.00 | 0.00 | 0.00 | 93 | 1008.1 |
| 20260831074141 | 56 | 16 | 0.0 | 0.0 | 0.00 | 0.00 | 0.00 | 93 | 1008.0 |
| 20260831073636 | 56 | 6 | 0.0 | 0.0 | 0.00 | 0.00 | 0.00 | 93 | 1008.2 |
| 20260831073136 | 56 | 355 | 0.0 | 0.0 | 0.00 | 0.00 | 0.00 | 93 | 1007.9 |
| 20260831072632 | 56 | 350 | 0.0 | 0.0 | 0.00 | 0.00 | 0.00 | 93 | 1008.2 |
| 20260831072128 | 56 | 356 | 0.0 | 0.0 | 0.00 | 0.00 | 0.00 | 92 | 1008.1 |
| 20260831071626 | 56 | 357 | 0.0 | 0.0 | 0.00 | 0.00 | 0.00 | 92 | 1008.2 |
| 20260831071122 | 56 | 356 | 0.0 | 0.0 | 0.00 | 0.00 | 0.00 | 92 | 1008.3 |
| 20260831070621 | 56 | 357 | 0.0 | 0.0 | 0.00 | 0.00 | 0.00 | 92 | 1008.1 |
| 20260831070116 | 56 | 353 | 0.0 | 0.0 | 0.00 | 0.00 | 0.00 | 92 | 1008.2 |
| 20260831065614 | 56 | 23 | 0.0 | 0.0 | 0.00 | 0.00 | 0.00 | 92 | 1008.4 |
| 20260831065108 | 56 | 19 | 0.0 | 0.0 | 0.00 | 0.00 | 0.00 | 92 | 1008.2 |
| 20260831064603 | 56 | 15 | 0.0 | 0.0 | 0.00 | 0.00 | 0.00 | 92 | 1008.2 |
| 20260831064059 | 57 | 17 | 0.0 | 0.0 | 0.00 | 0.00 | 0.00 | 92 | 1008.4 |
| 20260831063554 | 57 | 348 | 0.0 | 0.0 | 0.00 | 0.00 | 0.00 | 93 | 1008.1 |
| 20260831063054 | 57 | 348 | 0.0 | 0.0 | 0.00 | 0.00 | 0.00 | 92 | 1008.6 |
| 20260831062549 | 57 | 348 | 0.0 | 0.0 | 0.00 | 0.00 | 0.00 | 92 | 1008.4 |
| 20260831062049 | 57 | 348 | 0.0 | 0.0 | 0.00 | 0.00 | 0.00 | 92 | 1008.4 |
| 20260831061547 | 57 | 348 | 0.0 | 0.0 | 0.00 | 0.00 | 0.00 | 92 | 1008.4 |
| 20260831061043 | 57 | 348 | 0.0 | 0.0 | 0.00 | 0.00 | 0.00 | 92 | 1008.4 |
| 20260831060538 | 57 | 336 | 0.0 | 0.0 | 0.00 | 0.00 | 0.00 | 92 | 1008.6 |
| 20260831060033 | 57 | 351 | 0.0 | 0.0 | 0.00 | 0.00 | 0.00 | 92 | 1008.3 |
| 20260831055527 | 57 | 2 | 0.0 | 0.0 | 0.00 | 0.00 | 0.00 | 92 | 1008.5 |
| 20260831055024 | 57 | 2 | 0.0 | 0.0 | 0.00 | 0.00 | 0.00 | 92 | 1008.7 |
| 20260831054523 | 57 | 345 | 0.0 | 0.0 | 0.00 | 0.00 | 0.00 | 92 | 1008.6 |
| 20260831054022 | 57 | 345 | 0.0 | 0.0 | 0.00 | 0.00 | 0.00 | 92 | 1008.9 |
| 20260831053521 | 57 | 345 | 0.0 | 0.0 | 0.00 | 0.00 | 0.00 | 93 | 1008.8 |
| 20260831053016 | 57 | 350 | 0.0 | 0.0 | 0.00 | 0.00 | 0.00 | 92 | 1008.8 |
| 20260831052514 | 57 | 350 | 0.0 | 0.0 | 0.00 | 0.00 | 0.00 | 91 | 1008.8 |
| 20260831052009 | 57 | 350 | 0.0 | 0.0 | 0.00 | 0.00 | 0.00 | 91 | 1008.9 |
| 20260831051507 | 57 | 350 | 0.0 | 0.0 | 0.00 | 0.00 | 0.00 | 92 | 1008.8 |
| 20260831051006 | 57 | 350 | 0.0 | 0.0 | 0.00 | 0.00 | 0.00 | 92 | 1009.1 |
| 20260831050506 | 57 | 350 | 0.0 | 0.0 | 0.00 | 0.00 | 0.00 | 92 | 1009.2 |
| 20260831050004 | 57 | 350 | 0.0 | 0.0 | 0.00 | 0.00 | 0.00 | 92 | 1008.8 |
| 20260831045459 | 57 | 10 | 0.0 | 0.0 | 0.00 | 0.00 | 0.00 | 92 | 1009.3 |
| 20260831044954 | 57 | 25 | 0.0 | 0.0 | 0.00 | 0.00 | 0.00 | 93 | 1009.2 |
| 20260831044450 | 57 | 13 | 0.0 | 0.0 | 0.00 | 0.00 | 0.00 | 93 | 1009.1 |
| 20260831043945 | 57 | 2 | 0.0 | 0.0 | 0.00 | 0.00 | 0.00 | 93 | 1009.1 |
| 20260831043444 | 57 | 20 | 0.0 | 0.0 | 0.00 | 0.00 | 0.00 | 93 | 1009.1 |
| 20260831042939 | 57 | 342 | 0.0 | 0.0 | 0.00 | 0.00 | 0.00 | 93 | 1009.1 |
| 20260831042434 | 57 | 355 | 0.0 | 0.0 | 0.00 | 0.00 | 0.00 | 93 | 1009.2 |
| 20260831041933 | 57 | 357 | 0.0 | 0.0 | 0.00 | 0.00 | 0.00 | 93 | 1009.3 |
| 20260831041434 | 57 | 21 | 0.0 | 0.0 | 0.00 | 0.00 | 0.00 | 93 | 1008.9 |
| 20260831040929 | 57 | 20 | 0.0 | 0.0 | 0.00 | 0.00 | 0.00 | 93 | 1009.3 |
| 20260831040424 | 57 | 20 | 0.0 | 0.0 | 0.00 | 0.00 | 0.00 | 93 | 1009.1 |
| 20260831035921 | 57 | 20 | 0.0 | 0.0 | 0.00 | 0.00 | 0.00 | 93 | 1009.1 |
| 20260831035420 | 57 | 20 | 0.0 | 0.0 | 0.00 | 0.00 | 0.00 | 93 | 1009.1 |
| 20260831034915 | 57 | 20 | 0.0 | 0.0 | 0.00 | 0.00 | 0.00 | 93 | 1008.9 |
| 20260831034410 | 57 | 20 | 0.0 | 0.0 | 0.00 | 0.00 | 0.00 | 93 | 1009.2 |
| 20260831033905 | 57 | 20 | 0.0 | 0.0 | 0.00 | 0.00 | 0.00 | 93 | 1009.1 |
| 20260831033401 | 57 | 20 | 0.0 | 0.0 | 0.00 | 0.00 | 0.00 | 93 | 1008.8 |
| 20260831032856 | 57 | 20 | 0.0 | 0.0 | 0.00 | 0.00 | 0.00 | 92 | 1008.7 |
| 20260831032350 | 57 | 20 | 0.0 | 0.0 | 0.00 | 0.00 | 0.00 | 92 | 1008.9 |
| 20260831031846 | 57 | 20 | 0.0 | 0.0 | 0.00 | 0.00 | 0.00 | 92 | 1008.9 |
| 20260831031344 | 57 | 21 | 0.0 | 0.0 | 0.00 | 0.00 | 0.00 | 92 | 1008.8 |
| 20260831030839 | 57 | 20 | 0.0 | 0.0 | 0.00 | 0.00 | 0.00 | 91 | 1008.8 |
| 20260831030338 | 57 | 19 | 0.0 | 0.0 | 0.00 | 0.00 | 0.00 | 91 | 1008.7 |
| 20260831025832 | 57 | 19 | 0.0 | 0.0 | 0.00 | 0.00 | 0.00 | 91 | 1008.7 |
| 20260831025331 | 57 | 18 | 0.0 | 0.0 | 0.00 | 0.00 | 0.00 | 90 | 1008.8 |
| 20260831024827 | 58 | 356 | 0.0 | 0.0 | 0.00 | 0.00 | 0.00 | 89 | 1008.8 |
| 20260831024326 | 58 | 353 | 0.0 | 0.0 | 0.00 | 0.00 | 0.00 | 89 | 1008.9 |
| 20260831023826 | 58 | 350 | 0.0 | 0.0 | 0.00 | 0.00 | 0.00 | 88 | 1008.7 |
| 20260831023324 | 59 | 349 | 0.0 | 0.0 | 0.00 | 0.00 | 0.00 | 88 | 1008.8 |
| 20260831022820 | 59 | 348 | 0.0 | 0.0 | 0.00 | 0.00 | 0.00 | 87 | 1008.8 |
| 20260831022319 | 59 | 353 | 0.0 | 0.0 | 0.00 | 0.00 | 0.00 | 87 | 1008.6 |
| 20260831021814 | 59 | 354 | 0.0 | 0.0 | 0.00 | 0.00 | 0.00 | 86 | 1008.8 |
| 20260831021313 | 59 | 352 | 0.0 | 0.0 | 0.00 | 0.00 | 0.00 | 87 | 1008.8 |
| 20260831020810 | 60 | 327 | 0.0 | 0.0 | 0.00 | 0.00 | 0.00 | 86 | 1008.6 |
| 20260831020309 | 60 | 347 | 0.0 | 0.0 | 0.00 | 0.00 | 0.00 | 86 | 1008.9 |
| 20260831015804 | 60 | 346 | 0.0 | 1.0 | 0.00 | 0.00 | 0.00 | 85 | 1008.6 |
| 20260831015300 | 60 | 343 | 0.0 | 0.0 | 0.00 | 0.00 | 0.00 | 85 | 1008.6 |
| 20260831014800 | 60 | 351 | 0.0 | 0.0 | 0.00 | 0.00 | 0.00 | 85 | 1008.7 |
| 20260831014254 | 61 | 357 | 0.0 | 0.0 | 0.00 | 0.00 | 0.00 | 85 | 1008.8 |
| 20260831013751 | 61 | 352 | 0.0 | 0.0 | 0.00 | 0.00 | 0.00 | 85 | 1008.9 |
| 20260831013250 | 61 | 339 | 0.0 | 0.0 | 0.00 | 0.00 | 0.00 | 84 | 1008.9 |
| 20260831012745 | 61 | 339 | 0.0 | 0.0 | 0.00 | 0.00 | 0.00 | 85 | 1008.9 |
| 20260831012241 | 61 | 338 | 0.0 | 0.0 | 0.00 | 0.00 | 0.00 | 84 | 1008.6 |
| 20260831011740 | 61 | 344 | 1.0 | 1.0 | 0.00 | 0.00 | 0.00 | 84 | 1008.8 |
| 20260831011236 | 61 | 353 | 0.0 | 0.0 | 0.00 | 0.00 | 0.00 | 84 | 1008.6 |
| 20260831010731 | 61 | 344 | 1.0 | 1.0 | 0.00 | 0.00 | 0.00 | 84 | 1008.7 |
| 20260831010231 | 62 | 348 | 1.0 | 1.0 | 0.00 | 0.00 | 0.00 | 84 | 1008.8 |
| 20260831005726 | 62 | 340 | 1.0 | 1.0 | 0.00 | 0.00 | 0.00 | 84 | 1008.7 |
| 20260831005222 | 62 | 339 | 1.0 | 2.0 | 0.00 | 0.00 | 0.00 | 83 | 1008.8 |
| 20260831004717 | 62 | 339 | 2.0 | 2.0 | 0.00 | 0.00 | 0.00 | 83 | 1009.1 |
| 20260831004214 | 62 | 342 | 1.0 | 1.0 | 0.00 | 0.00 | 0.00 | 83 | 1008.8 |
| 20260831003709 | 62 | 343 | 0.0 | 1.0 | 0.00 | 0.00 | 0.00 | 83 | 1008.6 |
| 20260831003205 | 62 | 353 | 0.0 | 0.0 | 0.00 | 0.00 | 0.00 | 83 | 1008.9 |
| 20260831002703 | 62 | 324 | 2.0 | 2.0 | 0.00 | 0.00 | 0.00 | 83 | 1009.1 |
| 20260831002158 | 62 | 338 | 1.0 | 1.0 | 0.00 | 0.00 | 0.00 | 83 | 1008.8 |
| 20260831001654 | 62 | 352 | 0.0 | 1.0 | 0.00 | 0.00 | 0.00 | 83 | 1008.9 |
| 20260831001154 | 63 | 339 | 2.0 | 2.0 | 0.00 | 0.00 | 0.00 | 82 | 1008.8 |
| 20260831000651 | 63 | 351 | 1.0 | 1.0 | 0.00 | 0.00 | 0.00 | 82 | 1009.1 |
| 20260831000146 | 63 | 354 | 1.0 | 1.0 | 0.00 | 0.00 | 0.00 | 82 | 1009.3 |
| 20260830235645 | 63 | 340 | 1.0 | 1.0 | 0.00 | 0.00 | 0.00 | 83 | 1009.2 |
| 20260830235140 | 63 | 347 | 1.0 | 2.0 | 0.00 | 0.00 | 0.00 | 82 | 1009.2 |
| 20260830234635 | 64 | 330 | 1.0 | 2.0 | 0.00 | 0.00 | 0.00 | 81 | 1009.2 |
| 20260830234131 | 64 | 327 | 1.0 | 1.0 | 0.00 | 0.00 | 0.00 | 81 | 1009.1 |
| 20260830233626 | 64 | 331 | 1.0 | 2.0 | 0.00 | 0.00 | 0.00 | 81 | 1009.1 |
| 20260830233122 | 63 | 329 | 2.0 | 2.0 | 0.00 | 0.00 | 0.00 | 82 | 1009.2 |
| 20260830232618 | 64 | 332 | 0.0 | 0.0 | 0.00 | 0.00 | 0.00 | 80 | 1008.9 |
| 20260830232114 | 64 | 327 | 1.0 | 1.0 | 0.00 | 0.00 | 0.00 | 81 | 1009.2 |
| 20260830231609 | 64 | 332 | 2.0 | 2.0 | 0.00 | 0.00 | 0.00 | 82 | 1009.2 |
| 20260830231108 | 65 | 329 | 1.0 | 2.0 | 0.00 | 0.00 | 0.00 | 80 | 1009.1 |
| 20260830230604 | 64 | 320 | 1.0 | 2.0 | 0.00 | 0.00 | 0.00 | 81 | 1009.3 |
| 20260830230058 | 64 | 331 | 1.0 | 1.0 | 0.00 | 0.00 | 0.00 | 81 | 1009.3 |
| 20260830225554 | 64 | 328 | 2.0 | 2.0 | 0.00 | 0.00 | 0.00 | 81 | 1009.2 |
| 20260830225053 | 64 | 334 | 1.0 | 1.0 | 0.00 | 0.00 | 0.00 | 82 | 1009.2 |
| 20260830224552 | 64 | 338 | 1.0 | 1.0 | 0.00 | 0.00 | 0.00 | 82 | 1009.2 |
| 20260830224049 | 63 | 322 | 2.0 | 2.0 | 0.00 | 0.00 | 0.00 | 83 | 1009.4 |
| 20260830223545 | 63 | 339 | 1.0 | 2.0 | 0.00 | 0.00 | 0.00 | 84 | 1009.4 |
| 20260830223039 | 64 | 335 | 2.0 | 2.0 | 0.00 | 0.00 | 0.00 | 83 | 1009.5 |
| 20260830222534 | 63 | 341 | 2.0 | 2.0 | 0.00 | 0.00 | 0.00 | 84 | 1009.5 |
| 20260830222030 | 64 | 315 | 2.0 | 2.0 | 0.00 | 0.00 | 0.00 | 83 | 1009.7 |
| 20260830221526 | 64 | 344 | 1.0 | 2.0 | 0.00 | 0.00 | 0.00 | 83 | 1009.7 |
| 20260830221022 | 63 | 327 | 3.0 | 5.0 | 0.00 | 0.00 | 0.00 | 83 | 1009.5 |
| 20260830220521 | 64 | 337 | 3.0 | 3.0 | 0.00 | 0.00 | 0.00 | 82 | 1009.5 |
| 20260830220019 | 63 | 319 | 3.0 | 3.0 | 0.00 | 0.00 | 0.00 | 82 | 1009.8 |
| 20260830215514 | 64 | 336 | 3.0 | 3.0 | 0.00 | 0.00 | 0.00 | 83 | 1009.8 |
| 20260830215008 | 64 | 325 | 1.0 | 2.0 | 0.00 | 0.00 | 0.00 | 81 | 1009.7 |
| 20260830214503 | 64 | 337 | 2.0 | 2.0 | 0.00 | 0.00 | 0.00 | 83 | 1009.9 |
| 20260830213958 | 64 | 329 | 3.0 | 3.0 | 0.00 | 0.00 | 0.00 | 83 | 1009.8 |
| 20260830213453 | 64 | 326 | 1.0 | 1.0 | 0.00 | 0.00 | 0.00 | 81 | 1009.8 |
| 20260830212949 | 65 | 350 | 3.0 | 3.0 | 0.00 | 0.00 | 0.00 | 80 | 1009.6 |
| 20260830212444 | 64 | 348 | 2.0 | 2.0 | 0.00 | 0.00 | 0.00 | 82 | 1010.0 |
| 20260830211943 | 65 | 339 | 1.0 | 1.0 | 0.00 | 0.00 | 0.00 | 81 | 1009.9 |
| 20260830211438 | 64 | 315 | 2.0 | 2.0 | 0.00 | 0.00 | 0.00 | 81 | 1009.9 |
| 20260830210933 | 64 | 323 | 3.0 | 3.0 | 0.00 | 0.00 | 0.00 | 81 | 1010.1 |
| 20260830210428 | 65 | 325 | 3.0 | 3.0 | 0.00 | 0.00 | 0.00 | 80 | 1010.0 |
| 20260830205925 | 66 | 318 | 3.0 | 5.0 | 0.00 | 0.00 | 0.00 | 79 | 1010.1 |
| 20260830205424 | 65 | 353 | 1.0 | 2.0 | 0.00 | 0.00 | 0.00 | 79 | 1010.0 |
| 20260830204920 | 65 | 345 | 1.0 | 1.0 | 0.00 | 0.00 | 0.00 | 80 | 1009.9 |
| 20260830204419 | 65 | 309 | 1.0 | 1.0 | 0.00 | 0.00 | 0.00 | 79 | 1009.9 |
| 20260830203914 | 64 | 322 | 3.0 | 3.0 | 0.00 | 0.00 | 0.00 | 82 | 1010.0 |
| 20260830203411 | 65 | 348 | 2.0 | 2.0 | 0.00 | 0.00 | 0.00 | 80 | 1010.0 |
| 20260830202909 | 64 | 348 | 0.0 | 1.0 | 0.00 | 0.00 | 0.00 | 82 | 1010.0 |
| 20260830202404 | 64 | 327 | 1.0 | 2.0 | 0.00 | 0.00 | 0.00 | 81 | 1009.9 |
| 20260830201900 | 63 | 344 | 1.0 | 2.0 | 0.00 | 0.00 | 0.00 | 82 | 1010.0 |
| 20260830201354 | 63 | 336 | 1.0 | 2.0 | 0.00 | 0.00 | 0.00 | 82 | 1010.0 |
| 20260830200850 | 64 | 328 | 2.0 | 2.0 | 0.00 | 0.00 | 0.00 | 81 | 1010.0 |
| 20260830200349 | 64 | 329 | 2.0 | 2.0 | 0.00 | 0.00 | 0.00 | 82 | 1010.0 |
| 20260830195839 | 65 | 338 | 4.0 | 5.0 | 0.00 | 0.00 | 0.00 | 80 | 1010.0 |
| 20260830195338 | 65 | 337 | 1.0 | 1.0 | 0.00 | 0.00 | 0.00 | 80 | 1009.9 |
| 20260830194837 | 64 | 341 | 3.0 | 3.0 | 0.00 | 0.00 | 0.00 | 81 | 1010.0 |
| 20260830194330 | 64 | 328 | 2.0 | 2.0 | 0.00 | 0.00 | 0.00 | 82 | 1009.9 |
| 20260830193825 | 63 | 338 | 3.0 | 3.0 | 0.00 | 0.00 | 0.00 | 82 | 1009.9 |
| 20260830193319 | 65 | 309 | 3.0 | 3.0 | 0.00 | 0.00 | 0.00 | 80 | 1010.1 |
| 20260830192816 | 64 | 336 | 2.0 | 2.0 | 0.00 | 0.00 | 0.00 | 81 | 1010.2 |
| 20260830192315 | 64 | 344 | 2.0 | 2.0 | 0.00 | 0.00 | 0.00 | 81 | 1010.0 |
| 20260830191811 | 64 | 345 | 2.0 | 3.0 | 0.00 | 0.00 | 0.00 | 80 | 1009.9 |
| 20260830191310 | 65 | 338 | 1.0 | 1.0 | 0.00 | 0.00 | 0.00 | 79 | 1010.0 |
| 20260830190806 | 65 | 334 | 2.0 | 2.0 | 0.00 | 0.00 | 0.00 | 79 | 1009.8 |
| 20260830190301 | 65 | 329 | 2.0 | 2.0 | 0.00 | 0.00 | 0.00 | 81 | 1010.2 |
| 20260830185800 | 66 | 322 | 2.0 | 2.0 | 0.00 | 0.00 | 0.00 | 79 | 1009.9 |
| 20260830185255 | 66 | 323 | 2.0 | 2.0 | 0.00 | 0.00 | 0.00 | 79 | 1010.1 |
| 20260830184755 | 65 | 344 | 1.0 | 2.0 | 0.00 | 0.00 | 0.00 | 79 | 1010.1 |
| 20260830184254 | 65 | 351 | 1.0 | 1.0 | 0.00 | 0.00 | 0.00 | 79 | 1010.1 |
| 20260830183749 | 65 | 353 | 1.0 | 1.0 | 0.00 | 0.00 | 0.00 | 79 | 1010.0 |
| 20260830183244 | 65 | 334 | 1.0 | 2.0 | 0.00 | 0.00 | 0.00 | 80 | 1010.1 |
| 20260830182739 | 64 | 345 | 3.0 | 3.0 | 0.00 | 0.00 | 0.00 | 81 | 1010.0 |
| 20260830182235 | 64 | 359 | 1.0 | 2.0 | 0.00 | 0.00 | 0.00 | 80 | 1010.0 |
| 20260830181731 | 64 | 347 | 1.0 | 1.0 | 0.00 | 0.00 | 0.00 | 80 | 1010.2 |
| 20260830181226 | 64 | 336 | 2.0 | 2.0 | 0.00 | 0.00 | 0.00 | 80 | 1010.2 |
| 20260830180725 | 65 | 338 | 1.0 | 2.0 | 0.00 | 0.00 | 0.00 | 79 | 1010.2 |
| 20260830180220 | 66 | 315 | 1.0 | 2.0 | 0.00 | 0.00 | 0.00 | 77 | 1010.2 |
| 20260830175714 | 64 | 9 | 1.0 | 1.0 | 0.00 | 0.00 | 0.00 | 79 | 1010.0 |
| 20260830175209 | 64 | 349 | 1.0 | 1.0 | 0.00 | 0.00 | 0.00 | 79 | 1010.1 |
| 20260830174704 | 65 | 6 | 1.0 | 1.0 | 0.00 | 0.00 | 0.00 | 79 | 1010.1 |
| 20260830174200 | 65 | 6 | 0.0 | 1.0 | 0.00 | 0.00 | 0.00 | 78 | 1010.0 |
| 20260830173659 | 65 | 4 | 1.0 | 1.0 | 0.00 | 0.00 | 0.00 | 78 | 1009.9 |
| 20260830173159 | 64 | 6 | 0.0 | 0.0 | 0.00 | 0.00 | 0.00 | 80 | 1010.2 |
| 20260830172656 | 62 | 0 | 1.0 | 1.0 | 0.00 | 0.00 | 0.00 | 82 | 1010.3 |
| 20260830172153 | 62 | 4 | 1.0 | 1.0 | 0.00 | 0.00 | 0.00 | 82 | 1010.1 |
| 20260830171648 | 62 | 343 | 1.0 | 1.0 | 0.00 | 0.00 | 0.00 | 82 | 1010.1 |
| 20260830171143 | 61 | 6 | 0.0 | 0.0 | 0.00 | 0.00 | 0.00 | 84 | 1010.0 |
| 20260830170638 | 61 | 355 | 1.0 | 1.0 | 0.00 | 0.00 | 0.00 | 83 | 1010.2 |
| 20260830170137 | 62 | 6 | 0.0 | 0.0 | 0.00 | 0.00 | 0.00 | 83 | 1010.1 |
| 20260830165632 | 61 | 5 | 0.0 | 0.0 | 0.00 | 0.00 | 0.00 | 84 | 1010.1 |
| 20260830165127 | 61 | 40 | 0.0 | 0.0 | 0.00 | 0.00 | 0.00 | 83 | 1010.3 |
| 20260830164624 | 59 | 31 | 0.0 | 0.0 | 0.00 | 0.00 | 0.00 | 88 | 1010.0 |
| 20260830164119 | 59 | 15 | 0.0 | 0.0 | 0.00 | 0.00 | 0.00 | 87 | 1010.3 |
| 20260830163616 | 57 | 3 | 0.0 | 0.0 | 0.00 | 0.00 | 0.00 | 91 | 1010.5 |
| 20260830163116 | 56 | 353 | 0.0 | 0.0 | 0.00 | 0.00 | 0.00 | 92 | 1010.5 |
| 20260830162611 | 56 | 2 | 0.0 | 0.0 | 0.00 | 0.00 | 0.00 | 94 | 1010.2 |
| 20260830162106 | 55 | 3 | 0.0 | 0.0 | 0.00 | 0.00 | 0.00 | 95 | 1010.2 |
| 20260830161601 | 55 | 5 | 0.0 | 0.0 | 0.00 | 0.00 | 0.00 | 96 | 1010.2 |
| 20260830161055 | 54 | 4 | 0.0 | 0.0 | 0.00 | 0.00 | 0.00 | 97 | 1010.3 |
| 20260830160552 | 54 | 32 | 0.0 | 0.0 | 0.00 | 0.00 | 0.00 | 98 | 1010.6 |
| 20260830160047 | 54 | 32 | 0.0 | 0.0 | 0.00 | 0.00 | 0.00 | 98 | 1010.5 |
| 20260830155543 | 53 | 32 | 0.0 | 0.0 | 0.00 | 0.00 | 0.00 | 99 | 1010.5 |
| 20260830155038 | 53 | 33 | 0.0 | 0.0 | 0.00 | 0.00 | 0.00 | 99 | 1010.4 |
| 20260830154533 | 52 | 32 | 0.0 | 0.0 | 0.00 | 0.00 | 0.00 | 99 | 1010.5 |
| 20260830154030 | 52 | 32 | 0.0 | 0.0 | 0.00 | 0.00 | 0.00 | 99 | 1010.5 |
| 20260830153526 | 51 | 32 | 0.0 | 0.0 | 0.00 | 0.00 | 0.00 | 99 | 1010.6 |
| 20260830153025 | 51 | 33 | 0.0 | 0.0 | 0.00 | 0.00 | 0.00 | 99 | 1010.6 |
| 20260830152520 | 51 | 32 | 0.0 | 0.0 | 0.00 | 0.00 | 0.00 | 99 | 1010.3 |
| 20260830152019 | 50 | 32 | 0.0 | 0.0 | 0.00 | 0.00 | 0.00 | 99 | 1010.5 |
| 20260830151519 | 50 | 32 | 0.0 | 0.0 | 0.00 | 0.00 | 0.00 | 99 | 1010.3 |
| 20260830151014 | 50 | 32 | 0.0 | 0.0 | 0.00 | 0.00 | 0.00 | 99 | 1010.3 |
| 20260830150513 | 49 | 32 | 0.0 | 0.0 | 0.00 | 0.00 | 0.00 | 99 | 1010.3 |
| 20260830150008 | 49 | 32 | 0.0 | 0.0 | 0.00 | 0.00 | 0.00 | 99 | 1010.3 |
| 20260830145507 | 49 | 32 | 0.0 | 0.0 | 0.00 | 0.00 | 0.00 | 99 | 1010.5 |
| 20260830145003 | 49 | 33 | 0.0 | 0.0 | 0.00 | 0.00 | 0.00 | 99 | 1010.3 |
| 20260830144459 | 49 | 32 | 0.0 | 0.0 | 0.00 | 0.00 | 0.00 | 99 | 1010.3 |
| 20260830143954 | 49 | 32 | 0.0 | 0.0 | 0.00 | 0.00 | 0.00 | 99 | 1010.2 |
| 20260830143450 | 49 | 32 | 0.0 | 0.0 | 0.00 | 0.00 | 0.00 | 99 | 1010.2 |
| 20260830142948 | 49 | 32 | 0.0 | 0.0 | 0.00 | 0.00 | 0.00 | 99 | 1010.2 |
| 20260830142443 | 49 | 32 | 0.0 | 0.0 | 0.00 | 0.00 | 0.00 | 99 | 1010.2 |
| 20260830141938 | 49 | 32 | 0.0 | 0.0 | 0.00 | 0.00 | 0.00 | 99 | 1010.4 |
| 20260830141433 | 49 | 32 | 0.0 | 0.0 | 0.00 | 0.00 | 0.00 | 99 | 1010.2 |
| 20260830140928 | 49 | 32 | 0.0 | 0.0 | 0.00 | 0.00 | 0.00 | 99 | 1010.2 |
| 20260830140424 | 49 | 32 | 0.0 | 0.0 | 0.00 | 0.00 | 0.00 | 99 | 1010.0 |
| 20260830135922 | 49 | 32 | 0.0 | 0.0 | 0.00 | 0.00 | 0.00 | 99 | 1010.2 |
| 20260830135418 | 49 | 32 | 0.0 | 0.0 | 0.00 | 0.00 | 0.00 | 99 | 1010.0 |
| 20260830134914 | 49 | 31 | 0.0 | 0.0 | 0.00 | 0.00 | 0.00 | 99 | 1010.1 |
| 20260830134409 | 49 | 31 | 0.0 | 0.0 | 0.00 | 0.00 | 0.00 | 99 | 1010.2 |
| 20260830133905 | 49 | 30 | 0.0 | 0.0 | 0.00 | 0.00 | 0.00 | 99 | 1010.2 |
| 20260830133401 | 49 | 30 | 0.0 | 0.0 | 0.00 | 0.00 | 0.00 | 99 | 1010.1 |
| 20260830132855 | 49 | 30 | 0.0 | 0.0 | 0.00 | 0.00 | 0.00 | 99 | 1010.0 |
| 20260830132351 | 49 | 29 | 0.0 | 0.0 | 0.00 | 0.00 | 0.00 | 99 | 1010.0 |
| 20260830131850 | 49 | 29 | 0.0 | 0.0 | 0.00 | 0.00 | 0.00 | 99 | 1010.2 |
| 20260830131345 | 50 | 29 | 0.0 | 0.0 | 0.00 | 0.00 | 0.00 | 99 | 1010.1 |
| 20260830130839 | 50 | 28 | 0.0 | 0.0 | 0.00 | 0.00 | 0.00 | 99 | 1010.3 |
| 20260830130336 | 50 | 28 | 0.0 | 0.0 | 0.00 | 0.00 | 0.00 | 99 | 1010.2 |
| 20260830125834 | 50 | 28 | 0.0 | 0.0 | 0.00 | 0.00 | 0.00 | 99 | 1010.2 |
| 20260830125330 | 50 | 28 | 0.0 | 0.0 | 0.00 | 0.00 | 0.00 | 99 | 1010.1 |
| 20260830124827 | 50 | 28 | 0.0 | 0.0 | 0.00 | 0.00 | 0.00 | 99 | 1010.3 |
| 20260830124322 | 50 | 28 | 0.0 | 0.0 | 0.00 | 0.00 | 0.00 | 99 | 1010.1 |
| 20260830123819 | 50 | 28 | 0.0 | 0.0 | 0.00 | 0.00 | 0.00 | 99 | 1010.3 |
| 20260830123315 | 50 | 28 | 0.0 | 0.0 | 0.00 | 0.00 | 0.00 | 99 | 1010.3 |
| 20260830122813 | 50 | 28 | 0.0 | 0.0 | 0.00 | 0.00 | 0.00 | 99 | 1010.2 |
| 20260830122308 | 51 | 28 | 0.0 | 0.0 | 0.00 | 0.00 | 0.00 | 99 | 1010.1 |
| 20260830121803 | 51 | 28 | 0.0 | 0.0 | 0.00 | 0.00 | 0.00 | 98 | 1010.1 |
| 20260830121302 | 51 | 25 | 0.0 | 0.0 | 0.00 | 0.00 | 0.00 | 99 | 1010.1 |
| 20260830120757 | 51 | 17 | 0.0 | 0.0 | 0.00 | 0.00 | 0.00 | 98 | 1010.1 |
| 20260830120253 | 51 | 12 | 0.0 | 0.0 | 0.00 | 0.00 | 0.00 | 98 | 1010.1 |
| 20260830115750 | 51 | 11 | 0.0 | 0.0 | 0.00 | 0.00 | 0.00 | 98 | 1010.0 |
| 20260830115245 | 51 | 12 | 0.0 | 0.0 | 0.00 | 0.00 | 0.00 | 98 | 1010.2 |
| 20260830114741 | 52 | 12 | 0.0 | 0.0 | 0.00 | 0.00 | 0.00 | 98 | 1010.2 |
| 20260830114236 | 52 | 12 | 0.0 | 0.0 | 0.00 | 0.00 | 0.00 | 98 | 1010.2 |
| 20260830113731 | 52 | 12 | 0.0 | 0.0 | 0.00 | 0.00 | 0.00 | 98 | 1010.0 |
| 20260830113226 | 52 | 12 | 0.0 | 0.0 | 0.00 | 0.00 | 0.00 | 98 | 1010.1 |
| 20260830112722 | 52 | 12 | 0.0 | 0.0 | 0.00 | 0.00 | 0.00 | 97 | 1010.1 |
| 20260830112218 | 53 | 11 | 0.0 | 0.0 | 0.00 | 0.00 | 0.00 | 97 | 1010.1 |
| 20260830111714 | 53 | 11 | 0.0 | 0.0 | 0.00 | 0.00 | 0.00 | 97 | 1010.1 |
| 20260830111209 | 53 | 12 | 0.0 | 0.0 | 0.00 | 0.00 | 0.00 | 97 | 1010.0 |
| 20260830110703 | 53 | 11 | 0.0 | 0.0 | 0.00 | 0.00 | 0.00 | 96 | 1010.3 |
| 20260830110200 | 53 | 11 | 0.0 | 0.0 | 0.00 | 0.00 | 0.00 | 96 | 1010.2 |
| 20260830105659 | 54 | 11 | 0.0 | 0.0 | 0.00 | 0.00 | 0.00 | 95 | 1010.3 |
| 20260830105154 | 54 | 11 | 0.0 | 0.0 | 0.00 | 0.00 | 0.00 | 95 | 1010.2 |
| 20260830104651 | 54 | 12 | 0.0 | 0.0 | 0.00 | 0.00 | 0.00 | 94 | 1010.2 |
| 20260830104148 | 55 | 13 | 0.0 | 0.0 | 0.00 | 0.00 | 0.00 | 93 | 1010.1 |
| 20260830103646 | 55 | 21 | 0.0 | 0.0 | 0.00 | 0.00 | 0.00 | 93 | 1010.2 |
| 20260830103142 | 55 | 28 | 0.0 | 0.0 | 0.00 | 0.00 | 0.00 | 93 | 1010.3 |
| 20260830102641 | 55 | 27 | 0.0 | 0.0 | 0.00 | 0.00 | 0.00 | 93 | 1010.3 |
| 20260830102137 | 55 | 26 | 0.0 | 0.0 | 0.00 | 0.00 | 0.00 | 92 | 1010.4 |